Weather History for KHON - July, 2013

Change the Weather History Date:

Tuesday, July 2, 2013

  Actual Average Record
Temperature  
Mean Temperature 73 °F 72 °F  
Max Temperature 87 °F 85 °F 100 °F (1975)
Min Temperature 58 °F 60 °F 40 °F (1945)
Degree Days  
Heating Degree Days 0 0  
Month to date heating degree days 0 0  
Since 1 June heating degree days 66 51  
Since 1 July heating degree days 0 0  
Cooling Degree Days 8 8  
Month to date cooling degree days 12 16  
Year to date cooling degree days 185 182  
Since 1 June cooling degree days 147 149  
Growing Degree Days 22 (Base 50)    
Moisture  
Dew Point 56 °F    
Average Humidity 62    
Maximum Humidity 97    
Minimum Humidity 27    
Precipitation  
Precipitation 0.00 in 0.08 in 2.17 in (1958)
Month to date precipitation 0.00 0.16  
Year to date precipitation 14.05 12.07  
Snow  
Snow 0.00 in 0.00 in 0.00 in ()
Month to date snowfall 0.0 0.0  
Since 1 June snowfall 0.0 0.0  
Since 1 July snowfall 0.0 0.0  
Snow Depth 0.00 in    
Sea Level Pressure  
Sea Level Pressure 30.12 in    
Wind  
Wind Speed 2 mph (NW)    
Max Wind Speed 10 mph    
Max Gust Speed 12 mph    
Visibility 9 miles    
Events      
T = Trace of Precipitation, MM = Missing Value Source: NWS Daily Summary

Daily Weather History Graph

Daily Weather History Graph

Search for Another Location

Airport or City:

Trip Planner

Search our weather history database for the weather conditions in past years. The results will help you decide how hot, cold, wet, or windy it might be!

Date:

Astronomy

Jul. 02, 2013 Rise Set
Actual Time 5:53 AM CDT 9:20 PM CDT
Civil Twilight 5:16 AM CDT 9:57 PM CDT
Nautical Twilight 4:28 AM CDT 10:44 PM CDT
Astronomical Twilight 3:27 AM CDT 11:45 PM CDT
Moon 2:03 AM CDT (7/2) 4:30 PM CDT (7/2)
Length of Visible Light 16h 40m
Length of Day
15h 27m
Waning Crescent, 26% of the Moon is Illuminated
Jul 2
Waning Crescent
Jul 8
New
Jul 15
First Quarter
Jul 22
Full
Jul 29
Last Quarter

Hourly Weather History & Observations

Time (CDT) Temp. Heat Index Dew Point Humidity Pressure Visibility Wind Dir Wind Speed Gust Speed Precip Events Conditions
12:55 AM 63.0 °F - 60.1 °F 90% 30.16 in 10.0 mi Calm Calm - N/A   Clear
1:55 AM 61.0 °F - 59.0 °F 93% 30.16 in 10.0 mi NW 3.5 mph - N/A   Clear
2:55 AM 59.0 °F - 57.0 °F 93% 30.16 in 9.0 mi NW 6.9 mph - N/A   Clear
3:55 AM 60.1 °F - 57.9 °F 93% 30.16 in 9.0 mi NW 3.5 mph - N/A   Mostly Cloudy
4:55 AM 60.1 °F - 57.9 °F 93% 30.16 in 8.0 mi Calm Calm - N/A   Mostly Cloudy
5:55 AM 59.0 °F - 57.9 °F 96% 30.16 in 7.0 mi WNW 4.6 mph - N/A   Mostly Cloudy
6:55 AM 57.9 °F - 57.0 °F 97% 30.17 in 5.0 mi NW 4.6 mph - N/A   Clear
7:55 AM 61.0 °F - 59.0 °F 93% 30.17 in 4.0 mi WNW 3.5 mph - N/A   Scattered Clouds
9:55 AM 75.9 °F - 59.0 °F 56% 30.16 in 10.0 mi Calm Calm - N/A   Clear
10:55 AM 80.1 °F 81.1 °F 61.0 °F 52% 30.15 in 9.0 mi Calm Calm - N/A   Clear
11:55 AM 82.9 °F 81.9 °F 54.0 °F 37% 30.14 in 10.0 mi Calm Calm - N/A   Clear
12:55 PM 84.0 °F - 46.0 °F 26% 30.14 in 10.0 mi Calm Calm - N/A   Clear
1:55 PM 84.0 °F - 50.0 °F 31% 30.12 in 10.0 mi Variable 5.8 mph - N/A   Partly Cloudy
2:55 PM 84.0 °F - 50.0 °F 31% 30.11 in 10.0 mi Calm Calm - N/A   Partly Cloudy
3:55 PM 84.9 °F 83.2 °F 53.1 °F 33% 30.09 in 10.0 mi NW 4.6 mph - N/A   Clear
4:55 PM 84.0 °F 82.5 °F 53.1 °F 34% 30.08 in 10.0 mi NNW 5.8 mph - N/A   Partly Cloudy
5:55 PM 81.0 °F 80.5 °F 54.0 °F 39% 30.07 in 10.0 mi NNW 5.8 mph - N/A   Partly Cloudy
6:55 PM 82.9 °F 82.1 °F 55.9 °F 39% 30.06 in 10.0 mi WNW 3.5 mph - N/A   Clear
7:55 PM 82.0 °F 82.1 °F 59.0 °F 45% 30.05 in 10.0 mi Calm Calm - N/A   Clear
8:55 PM 75.9 °F - 57.9 °F 54% 30.04 in 10.0 mi Calm Calm - N/A   Clear
9:55 PM 69.1 °F - 55.0 °F 61% 30.05 in 10.0 mi Calm Calm - N/A   Clear
10:55 PM 66.0 °F - 60.1 °F 81% 30.06 in 8.0 mi Calm Calm - N/A   Clear
11:55 PM 64.9 °F - 59.0 °F 81% 30.05 in 8.0 mi Calm Calm - N/A   Clear